カタログに戻る

STARLINK-34107

運用中通信VLEO
NORAD 63960·PAYLOAD·🇺🇸 United States

打ち上げ May 13, 2025 から Cape Canaveral Space Force Station

Loading…

次のパス (今後24時間)

TLE

最新Source: CelesTrak SupGP

元期: Sep 14, 2026, 22:52 UTC

1 63960C 25099J   26257.95326389 -.00005776  00000+0 -20943-3 0  2570
2 63960  43.0003 187.4615 0001516 271.6478 335.8529 15.27548746    11

AllMySatでSTARLINK-34107をリアルタイム追跡

Download on the App Store